Location: Black Swamp Observatory
(41.3920°N, 84.1250°W)
Time: 01:06:57
(UTC-05:00)

BlueWalker 3 - Pass Details

Date: 30 November 2022
Orbit: 499 x 517 km, 53.2° (Epoch: 02 February)

Event Time Altitude Azimuth Distance (km) Brightness Sun altitude
Rises 17:57:53 0° 281° (W) 2,627 6.7 -9.3°
Reaches altitude 10° 18:00:39 10° 301° (WNW) 1,737 5.2 -9.8°
Maximum altitude 18:03:25 18° 345° (NNW) 1,308 4.0 -10.3°
Drops below altitude 10° 18:06:09 10° 30° (NNE) 1,731 4.2 -10.8°
Enters shadow 18:06:19 - 32° (NNE) 1,774 4.3 -10.8°
